STARLINK-33998 (63951 NORAD) Tracking and Keplerian Element Data

This shows tracking and keplerian element data for the satellite.

Feedback or suggestion? Click here.




ElementValue
Catalog63951
NameSTARLINK-33998
Epoch Orbit3456
Epoch Day353.63930881
Epoch Year2025
RAAN116.2117
Inclination70.0022
Eccentricity0.0003237
Argument of Perigee274.705
Mean Anonmoly85.3739
Mean Motion14.98336989
Decay Rate4.043E-05
L11 63951U 25098AB 25353.63930881 .00004043 00000+0 34640-3 0 9994
L22 63951 70.0022 116.2117 0003237 274.7050 85.3739 14.98336989 34569



Live tracking and technical data element details for STARLINK-33998 (NORAD 63951). STARLINK-33998 can be tracked NOW for your location showing map with azimuth and elevation plus other details from your city location.







IsCatalogInMostPopularTable: catalog: 63951, numindb: 6
Update: records affected: 1



GetName: 63951 STARLINK-33998

Hit Count: updated at: Wed, 15 Apr 2026 01:30:00 GMT